Kake, AK

7:24 PM AKST on February 22, 2017 (GMT -0900)
Kake

Weather History for PAFE - November, 2012

Change the Weather History Date:

Saturday, November 10, 2012

  Actual Average Record
Temperature  
Mean Temperature 30 °F -  
Max Temperature 35 °F 40 °F 57 °F (1997)
Min Temperature 24 °F 33 °F 24 °F (2012)
Degree Days  
Heating Degree Days 36    
Moisture  
Dew Point 23 °F    
Average Humidity 70    
Maximum Humidity 86    
Minimum Humidity 52    
Precipitation  
Precipitation 0.00 in - - ()
Sea Level Pressure  
Sea Level Pressure 29.95 in    
Wind  
Wind Speed 5 mph (ESE)    
Max Wind Speed 13 mph    
Max Gust Speed 22 mph    
Visibility 9 miles    
Events      
Averages and records for this station are not official NWS values.
T = Trace of Precipitation, MM = Missing Value Source: NWS Daily Summary

Daily Weather History Graph

Daily Weather History Graph

Search for Another Location

Airport or City:

Trip Planner

Search our weather history database for the weather conditions in past years. The results will help you decide how hot, cold, wet, or windy it might be!

Date:

Astronomy

Nov. 10, 2012 Rise Set
Actual Time 7:27 AM AKST 3:51 PM AKST
Civil Twilight 6:44 AM AKST 4:33 PM AKST
Nautical Twilight 5:58 AM AKST 5:20 PM AKST
Astronomical Twilight 5:13 AM AKST 6:04 PM AKST
Moon 3:02 AM AKST (11/10) 2:14 PM AKST (11/10)
Length of Visible Light 9h 49m
Length of Day
8h 23m
Waning Crescent, 13% of the Moon is Illuminated
Nov 10
Waning Crescent
Nov 13
New
Nov 20
First Quarter
Nov 28
Full
Dec 6
Last Quarter

Hourly Weather History & Observations

Time (AKST) Temp. Windchill Dew Point Humidity Pressure Visibility Wind Dir Wind Speed Gust Speed Precip Events Conditions
12:16 AM 24.8 °F 17.9 °F 19.4 °F 80% 30.11 in 10.0 mi ENE 5.8 mph - N/A   Clear
12:36 AM 24.8 °F 19.1 °F 21.2 °F 86% 30.11 in 10.0 mi East 4.6 mph - N/A   Clear
12:56 AM 26.6 °F 21.2 °F 21.2 °F 80% 30.10 in 10.0 mi East 4.6 mph - N/A   Mostly Cloudy
1:16 AM 26.6 °F 22.6 °F 21.2 °F 80% 30.10 in 10.0 mi ENE 3.5 mph - N/A   Overcast
1:36 AM 26.6 °F - 21.2 °F 80% 30.10 in 10.0 mi Calm Calm - N/A   Overcast
1:56 AM 26.6 °F 22.6 °F 23.0 °F 86% 30.11 in 10.0 mi ENE 3.5 mph - N/A   Mostly Cloudy
2:16 AM 26.6 °F 21.2 °F 23.0 °F 86% 30.10 in 10.0 mi ENE 4.6 mph - N/A   Mostly Cloudy
2:36 AM 26.6 °F 21.2 °F 23.0 °F 86% 30.09 in 10.0 mi East 4.6 mph - N/A   Overcast
2:56 AM 28.4 °F 24.6 °F 23.0 °F 80% 30.08 in 10.0 mi East 3.5 mph - N/A   Overcast
3:16 AM 26.6 °F 20.0 °F 23.0 °F 86% 30.08 in 10.0 mi East 5.8 mph - N/A   Scattered Clouds
3:36 AM 26.6 °F 21.2 °F 23.0 °F 86% 30.07 in 10.0 mi East 4.6 mph - N/A   Mostly Cloudy
3:56 AM 28.4 °F - 21.2 °F 74% 30.06 in 10.0 mi Calm Calm - N/A   Overcast
4:16 AM 28.4 °F - 21.2 °F 74% 30.06 in 10.0 mi Calm Calm - N/A   Overcast
4:36 AM 28.4 °F - 23.0 °F 80% 30.05 in 10.0 mi Calm Calm - N/A   Overcast
4:56 AM 28.4 °F - 23.0 °F 80% 30.04 in 10.0 mi Calm Calm - N/A   Overcast
5:16 AM 28.4 °F 24.6 °F 23.0 °F 80% 30.03 in 10.0 mi East 3.5 mph - N/A   Scattered Clouds
5:36 AM 28.4 °F - 24.8 °F 86% 30.03 in 10.0 mi Calm Calm - N/A   Mostly Cloudy
5:56 AM 28.4 °F - 23.0 °F 80% 30.03 in 10.0 mi Calm Calm - N/A   Overcast
6:36 AM 28.4 °F 22.2 °F 23.0 °F 80% 30.01 in 10.0 mi East 5.8 mph - N/A   Overcast
6:56 AM 28.4 °F 23.3 °F 23.0 °F 80% 30.00 in 10.0 mi East 4.6 mph - N/A   Overcast
7:16 AM 28.4 °F - 21.2 °F 74% 30.01 in 10.0 mi Calm Calm - N/A   Overcast
7:36 AM 30.2 °F - 21.2 °F 69% 30.01 in 10.0 mi Calm Calm - N/A   Overcast
7:56 AM 30.2 °F 25.4 °F 19.4 °F 64% 30.00 in 10.0 mi East 4.6 mph - N/A   Overcast
8:16 AM 30.2 °F 25.4 °F 17.6 °F 60% 30.00 in 10.0 mi ESE 4.6 mph - N/A   Overcast
8:36 AM 32.0 °F 24.8 °F 19.4 °F 60% 30.00 in 10.0 mi ESE 8.1 mph - N/A   Overcast
8:56 AM 32.0 °F 27.5 °F 19.4 °F 60% 29.99 in 10.0 mi SE 4.6 mph - N/A   Overcast
9:16 AM 32.0 °F 28.7 °F 17.6 °F 55% 29.98 in 10.0 mi SE 3.5 mph - N/A   Overcast
9:36 AM 32.0 °F 28.7 °F 19.4 °F 60% 29.98 in 10.0 mi ESE 3.5 mph - N/A   Scattered Clouds
9:56 AM 33.8 °F 30.8 °F 19.4 °F 56% 29.98 in 10.0 mi SE 3.5 mph - N/A   Scattered Clouds
10:16 AM 33.8 °F 27.7 °F 19.4 °F 56% 29.98 in 10.0 mi SSE 6.9 mph - N/A   Mostly Cloudy
10:36 AM 33.8 °F 27.7 °F 19.4 °F 56% 29.98 in 10.0 mi ESE 6.9 mph - N/A   Overcast
10:56 AM 33.8 °F 27.7 °F 19.4 °F 56% 29.98 in 10.0 mi SE 6.9 mph - N/A   Overcast
11:16 AM 33.8 °F 30.8 °F 19.4 °F 56% 29.97 in 10.0 mi SSE 3.5 mph - N/A   Overcast
11:36 AM 35.6 °F 30.7 °F 21.2 °F 56% 29.97 in 10.0 mi East 5.8 mph - N/A   Overcast
11:56 AM 35.6 °F 27.5 °F 19.4 °F 52% 29.96 in 10.0 mi ESE 11.5 mph - N/A   Overcast
12:16 PM 35.6 °F 29.9 °F 21.2 °F 56% 29.95 in 10.0 mi ESE 6.9 mph - N/A   Overcast
12:36 PM 35.6 °F 28.6 °F 21.2 °F 56% 29.95 in 10.0 mi ESE 9.2 mph - N/A   Overcast
12:56 PM 35.6 °F 28.0 °F 21.2 °F 56% 29.94 in 10.0 mi ESE 10.4 mph - N/A   Overcast
1:16 PM 35.6 °F 28.6 °F 21.2 °F 56% 29.93 in 10.0 mi ESE 9.2 mph - N/A   Mostly Cloudy
1:36 PM 35.6 °F 29.2 °F 21.2 °F 56% 29.92 in 10.0 mi ESE 8.1 mph - N/A   Mostly Cloudy
1:56 PM 35.6 °F 28.0 °F 21.2 °F 56% 29.92 in 10.0 mi East 10.4 mph - N/A   Overcast
2:16 PM 35.6 °F 29.2 °F 21.2 °F 56% 29.91 in 10.0 mi ESE 8.1 mph - N/A   Overcast
2:36 PM 35.6 °F 29.2 °F 21.2 °F 56% 29.91 in 10.0 mi ESE 8.1 mph - N/A   Overcast
2:56 PM 35.6 °F 31.7 °F 21.2 °F 56% 29.91 in 10.0 mi East 4.6 mph - N/A   Overcast
3:16 PM 35.6 °F 29.9 °F 21.2 °F 56% 29.90 in 10.0 mi ESE 6.9 mph - N/A   Overcast
3:36 PM 35.6 °F 28.6 °F 21.2 °F 56% 29.90 in 10.0 mi ESE 9.2 mph - N/A   Overcast
3:56 PM 35.6 °F 28.0 °F 23.0 °F 60% 29.90 in 10.0 mi ESE 10.4 mph - N/A   Overcast
4:16 PM 35.6 °F 28.6 °F 23.0 °F 60% 29.89 in 10.0 mi ESE 9.2 mph - N/A   Overcast
4:36 PM 35.6 °F 29.9 °F 24.8 °F 65% 29.89 in 10.0 mi ESE 6.9 mph - N/A   Overcast
4:56 PM 35.6 °F 29.9 °F 24.8 °F 65% 29.88 in 10.0 mi ESE 6.9 mph 18.4 mph N/A   Overcast
5:16 PM 35.6 °F 29.2 °F 24.8 °F 65% 29.88 in 10.0 mi ESE 8.1 mph - N/A   Overcast
5:36 PM 35.6 °F 29.9 °F 24.8 °F 65% 29.87 in 10.0 mi ESE 6.9 mph - N/A   Overcast
5:56 PM 35.6 °F 28.6 °F 24.8 °F 65% 29.87 in 10.0 mi ESE 9.2 mph 17.3 mph N/A   Overcast
6:16 PM 33.8 °F 25.8 °F 26.6 °F 75% 29.87 in 8.0 mi ESE 10.4 mph - N/A   Overcast
6:36 PM 33.8 °F 24.8 °F 26.6 °F 75% 29.87 in 4.0 mi ESE 12.7 mph 21.9 mph N/A   Overcast
7:16 PM 33.8 °F 24.8 °F 26.6 °F 75% 29.87 in 3.0 mi ESE 12.7 mph 18.4 mph N/A   Overcast
7:36 PM 33.8 °F 27.7 °F 26.6 °F 75% 29.86 in 2.5 mi East 6.9 mph - N/A   Overcast
7:56 PM 33.8 °F 26.4 °F 28.4 °F 81% 29.85 in 3.0 mi East 9.2 mph 16.1 mph N/A   Overcast
8:16 PM 33.8 °F 25.8 °F 28.4 °F 81% 29.85 in 3.0 mi ESE 10.4 mph 17.3 mph N/A   Overcast
8:36 PM 33.8 °F 25.8 °F 28.4 °F 81% 29.85 in 2.5 mi ESE 10.4 mph 16.1 mph N/A   Overcast
8:56 PM 33.8 °F 26.4 °F 28.4 °F 81% 29.85 in 3.0 mi ESE 9.2 mph 18.4 mph N/A   Overcast
9:16 PM 33.8 °F 27.0 °F 28.4 °F 81% 29.84 in 4.0 mi East 8.1 mph - N/A   Overcast
9:36 PM 33.8 °F 25.8 °F 28.4 °F 81% 29.84 in 5.0 mi East 10.4 mph - N/A   Overcast
9:56 PM 33.8 °F 26.4 °F 28.4 °F 81% 29.84 in 5.0 mi East 9.2 mph 18.4 mph N/A   Overcast
10:16 PM 33.8 °F 27.0 °F 28.4 °F 81% 29.84 in 7.0 mi ESE 8.1 mph 16.1 mph N/A   Overcast
10:36 PM 33.8 °F 25.8 °F 28.4 °F 81% 29.83 in 5.0 mi ESE 10.4 mph 16.1 mph N/A   Overcast
10:56 PM 33.8 °F 28.6 °F 28.4 °F 81% 29.83 in 5.0 mi East 5.8 mph - N/A   Overcast
11:16 PM 33.8 °F 27.7 °F 28.4 °F 81% 29.83 in 5.0 mi ESE 6.9 mph - N/A   Overcast
11:36 PM 33.8 °F 25.3 °F 28.4 °F 81% 29.82 in 5.0 mi East 11.5 mph 16.1 mph N/A   Overcast
11:56 PM 33.8 °F 24.8 °F 28.4 °F 81% 29.82 in 7.0 mi ESE 12.7 mph 19.6 mph N/A   Overcast